星链-31191 (STARLINK-31191 )

导读 | 星芒AI

STARLINK-31191 是 SpaceX Starlink 卫星互联网项目中的一颗低轨通信卫星。该卫星属于 Starlink 二代星座计划,旨在提供更高速度、更低延迟的全球互联网服务。它运行在约 550 公里的轨道高度,采用先进推进系统和激光通信技术,以增强网络性能和卫星间通信能力。作为 Starlink 计划的一部分,STARLINK-31191 有助于扩展覆盖范围,提升服务质量,特别是在偏远和农村地区。

基本信息
目录编号:
58800
目录名称:
STARLINK-31191
国际标识:
2024-012P
轨道中心:
EARTH
卫星名称:
星链-31191
卫星全名:
星链-31191 (STARLINK-31191 )
卫星状态:
在轨 (已飞行704 天)
发射日期:
2024-01-15 UTC
国别 :
美国 (US)
星等 :
--
轨道信息
数据来源 国际轨道数据
星历时间: 2025-12-19T10:19:36+0800
19小时前
查看轨道信息
半长轴: 6861.233km
偏心率: 0.0001302
轨道倾角: 42.998°
近地点辐角 260.936°
升交点赤经 260.111°
平近点角 99.134°
近地点: 482.202km
远地点: 483.99km
周期: 94.268分钟
每日圈数: 15.275645
详细信息
固有亮度:
5
最大亮度:
0.3
卫星平台:
Starlink v2.0 mini
覆盖范围:
全球
运营商:
太空探索技术公司
运营商所在国:
美国
制造商(研发单位):
太空探索技术公司
制造商所在国:
美国
使用方式:
暂无
卫星简介
星链(Starlink)计划是由太空探索技术公司(SpaceX)提出的一个巨型低轨卫星互联网星座项目,计划在2019年至2024年间在太空搭建由约1.2万颗卫星组成的“星链”网络,其中1584颗将部署在地球上空550千米处的近地轨道,并从2020年开始工作。该卫星仍在工作。
2D轨道图
3D轨道图
轨道高度分析图
轨道倾角分析图
轨道综合分析图
查看轨道综合分析图